Hourly Weather Otradnoe

Today, 28 July, Wednesday

Time Temperature Precipitation Wind Pressure Humidity
00:00 +20°C° 0 mm 2 mps 754 mmHg 61%
01:00 +19°C° 0 mm 2 mps 754 mmHg 64%
02:00 +19°C° 0 mm 2 mps 754 mmHg 66%
03:00 +18°C° 0 mm 2 mps 754 mmHg 69%
04:00 +19°C° 0 mm 2 mps 754 mmHg 67%
05:00 +19°C° 0 mm 2 mps 754 mmHg 65%
06:00 +21°C° 0 mm 1 mps 754 mmHg 64%
07:00 +23°C° 0 mm 2 mps 754 mmHg 58%
08:00 +25°C° 0 mm 2 mps 754 mmHg 53%
09:00 +27°C° 0 mm 2 mps 754 mmHg 47%
10:00 +28°C° 0 mm 2 mps 754 mmHg 43%
11:00 +29°C° 0 mm 2 mps 754 mmHg 38%
12:00 +30°C° 0 mm 2 mps 753 mmHg 34%
13:00 +30°C° 0 mm 2 mps 753 mmHg 33%
14:00 +30°C° 0 mm 2 mps 753 mmHg 33%
15:00 +31°C° 0 mm 2 mps 753 mmHg 32%
16:00 +30°C° 0 mm 2 mps 752 mmHg 34%
17:00 +30°C° 0 mm 1 mps 752 mmHg 37%
18:00 +29°C° 0 mm 1 mps 752 mmHg 39%
19:00 +28°C° 0 mm 1 mps 752 mmHg 42%
20:00 +26°C° 0 mm 1 mps 752 mmHg 44%
21:00 +25°C° 0 mm 1 mps 752 mmHg 47%
22:00 +24°C° 0 mm 1 mps 752 mmHg 49%
23:00 +23°C° 0 mm 1 mps 752 mmHg 51%

Tomorrow, 29 July, Thursday

Time Temperature Precipitation Wind Pressure Humidity
00:00 +23°C° 0 mm 1 mps 752 mmHg 53%
01:00 +22°C° 0 mm 1 mps 752 mmHg 54%
02:00 +22°C° 0 mm 1 mps 752 mmHg 56%
03:00 +20°C° 0 mm 0 mps 752 mmHg 57%
04:00 +22°C° 0 mm 1 mps 752 mmHg 56%
05:00 +22°C° 0 mm 1 mps 751 mmHg 56%
06:00 +23°C° 0 mm 2 mps 751 mmHg 55%
07:00 +24°C° 0 mm 2 mps 751 mmHg 52%
08:00 +25°C° 0 mm 3 mps 751 mmHg 48%
09:00 +26°C° 0 mm 3 mps 751 mmHg 44%
10:00 +26°C° 0 mm 3 mps 751 mmHg 47%
11:00 +26°C° 0 mm 2 mps 751 mmHg 50%
12:00 +25°C° 0 mm 2 mps 751 mmHg 52%
13:00 +27°C° 0 mm 3 mps 750 mmHg 47%
14:00 +29°C° 0 mm 5 mps 750 mmHg 42%
15:00 +32°C° 0 mm 6 mps 749 mmHg 36%
16:00 +30°C° 0.1 mm 5 mps 749 mmHg 40%
17:00 +29°C° 0.1 mm 4 mps 748 mmHg 43%
18:00 +29°C° 0.1 mm 3 mps 748 mmHg 47%
19:00 +26°C° 0.6 mm 3 mps 748 mmHg 58%
20:00 +24°C° 0.6 mm 3 mps 748 mmHg 68%
21:00 +21°C° 0.6 mm 3 mps 748 mmHg 78%
22:00 +21°C° 0.1 mm 2 mps 748 mmHg 79%
23:00 +21°C° 0.1 mm 2 mps 748 mmHg 79%

Day after tomorrow, 30 July, Friday

Time Temperature Precipitation Wind Pressure Humidity
00:00 +21°C° 0.1 mm 2 mps 748 mmHg 80%
01:00 +20°C° 0 mm 2 mps 748 mmHg 80%
02:00 +20°C° 0 mm 2 mps 748 mmHg 81%
03:00 +20°C° 0 mm 2 mps 748 mmHg 82%
04:00 +21°C° 0 mm 2 mps 748 mmHg 81%
05:00 +21°C° 0 mm 2 mps 748 mmHg 79%
06:00 +23°C° 0 mm 2 mps 748 mmHg 78%
07:00 +25°C° 0 mm 2 mps 748 mmHg 70%
08:00 +27°C° 0 mm 2 mps 749 mmHg 63%
09:00 +28°C° 0 mm 2 mps 749 mmHg 55%
10:00 +30°C° 0 mm 2 mps 749 mmHg 49%
11:00 +31°C° 0 mm 3 mps 749 mmHg 43%
12:00 +34°C° 0 mm 3 mps 748 mmHg 37%
13:00 +34°C° 0 mm 3 mps 748 mmHg 37%
14:00 +34°C° 0 mm 3 mps 748 mmHg 36%
15:00 +34°C° 0 mm 3 mps 748 mmHg 36%
16:00 +33°C° 0.1 mm 4 mps 748 mmHg 41%
17:00 +32°C° 0.1 mm 4 mps 748 mmHg 45%
18:00 +30°C° 0.1 mm 5 mps 748 mmHg 50%
19:00 +28°C° 0 mm 4 mps 748 mmHg 55%
20:00 +26°C° 0 mm 3 mps 747 mmHg 59%
21:00 +25°C° 0 mm 3 mps 747 mmHg 64%
22:00 +24°C° 0.2 mm 2 mps 748 mmHg 68%
23:00 +23°C° 0.2 mm 2 mps 748 mmHg 71%

31 July, Saturday

Time Temperature Precipitation Wind Pressure Humidity
00:00 +23°C° 0.2 mm 2 mps 748 mmHg 75%
01:00 +23°C° 0.2 mm 2 mps 748 mmHg 76%
02:00 +22°C° 0.2 mm 1 mps 748 mmHg 78%
03:00 +22°C° 0.2 mm 1 mps 748 mmHg 80%
04:00 +22°C° 0 mm 1 mps 748 mmHg 78%
05:00 +23°C° 0 mm 1 mps 748 mmHg 76%
06:00 +24°C° 0 mm 1 mps 748 mmHg 73%
07:00 +25°C° 0 mm 2 mps 748 mmHg 67%
08:00 +27°C° 0 mm 2 mps 748 mmHg 61%
09:00 +28°C° 0 mm 3 mps 748 mmHg 54%
10:00 +29°C° 0 mm 4 mps 748 mmHg 52%
11:00 +30°C° 0 mm 4 mps 748 mmHg 49%
12:00 +32°C° 0 mm 5 mps 748 mmHg 46%
13:00 +32°C° 0 mm 5 mps 748 mmHg 48%
14:00 +32°C° 0 mm 5 mps 748 mmHg 50%
15:00 +30°C° 0 mm 4 mps 749 mmHg 51%
16:00 +30°C° 0 mm 4 mps 749 mmHg 51%
17:00 +30°C° 0 mm 3 mps 749 mmHg 52%
18:00 +30°C° 0 mm 2 mps 749 mmHg 52%
19:00 +28°C° 0.1 mm 2 mps 749 mmHg 56%
20:00 +27°C° 0.1 mm 2 mps 749 mmHg 60%
21:00 +26°C° 0.1 mm 2 mps 750 mmHg 65%
22:00 +25°C° 0 mm 2 mps 750 mmHg 66%
23:00 +24°C° 0 mm 2 mps 750 mmHg 68%

1 August, Sunday

Time Temperature Precipitation Wind Pressure Humidity
00:00 +24°C° 0 mm 1 mps 750 mmHg 70%
01:00 +23°C° 0 mm 1 mps 750 mmHg 71%
02:00 +23°C° 0 mm 1 mps 751 mmHg 72%
03:00 +20°C° 0 mm 0 mps 751 mmHg 73%
04:00 +21°C° 0 mm 0 mps 751 mmHg 71%
05:00 +24°C° 0 mm 1 mps 751 mmHg 69%
06:00 +24°C° 0 mm 1 mps 752 mmHg 66%
07:00 +26°C° 0 mm 1 mps 752 mmHg 60%
08:00 +26°C° 0 mm 0 mps 752 mmHg 53%
09:00 +28°C° 0 mm 0 mps 752 mmHg 46%
10:00 +31°C° 0 mm 1 mps 752 mmHg 41%
11:00 +32°C° 0 mm 1 mps 751 mmHg 37%
12:00 +33°C° 0 mm 1 mps 751 mmHg 32%
13:00 +34°C° 0 mm 1 mps 751 mmHg 30%
14:00 +35°C° 0 mm 2 mps 751 mmHg 29%
15:00 +36°C° 0 mm 2 mps 751 mmHg 27%
16:00 +35°C° 0 mm 2 mps 751 mmHg 30%
17:00 +34°C° 0 mm 1 mps 750 mmHg 32%
18:00 +33°C° 0 mm 1 mps 750 mmHg 35%
19:00 +32°C° 0 mm 1 mps 750 mmHg 38%
20:00 +30°C° 0 mm 1 mps 751 mmHg 42%
21:00 +28°C° 0 mm 1 mps 751 mmHg 45%
22:00 +27°C° 0 mm 1 mps 751 mmHg 47%
23:00 +26°C° 0 mm 1 mps 751 mmHg 48%

2 August, Monday

Time Temperature Precipitation Wind Pressure Humidity
00:00 +26°C° 0 mm 1 mps 751 mmHg 49%
01:00 +26°C° 0 mm 1 mps 751 mmHg 49%
02:00 +26°C° 0 mm 1 mps 751 mmHg 49%
03:00 +25°C° 0 mm 1 mps 751 mmHg 49%
04:00 +26°C° 0 mm 1 mps 751 mmHg 50%
05:00 +26°C° 0 mm 1 mps 751 mmHg 50%
06:00 +26°C° 0 mm 1 mps 751 mmHg 50%
07:00 +28°C° 0 mm 2 mps 751 mmHg 46%
08:00 +30°C° 0 mm 2 mps 751 mmHg 41%
09:00 +32°C° 0 mm 2 mps 751 mmHg 37%
10:00 +34°C° 0 mm 2 mps 750 mmHg 33%
11:00 +36°C° 0 mm 2 mps 750 mmHg 29%
12:00 +38°C° 0 mm 2 mps 750 mmHg 25%
13:00 +38°C° 0 mm 3 mps 750 mmHg 23%
14:00 +39°C° 0 mm 3 mps 749 mmHg 21%
15:00 +39°C° 0 mm 3 mps 749 mmHg 19%
16:00 +38°C° 0 mm 3 mps 749 mmHg 21%
17:00 +38°C° 0 mm 2 mps 748 mmHg 22%
18:00 +37°C° 0 mm 2 mps 748 mmHg 24%
19:00 +35°C° 0 mm 2 mps 748 mmHg 26%
20:00 +31°C° 0 mm 2 mps 748 mmHg 28%
21:00 +29°C° 0 mm 2 mps 749 mmHg 30%
22:00 +28°C° 0 mm 2 mps 748 mmHg 34%
23:00 +27°C° 0 mm 2 mps 748 mmHg 38%
Show more